TimeCST,TemperatureF,Dew PointF,Humidity,Sea Level PressureIn,VisibilityMPH,Wind Direction,Wind SpeedMPH,Gust SpeedMPH,PrecipitationIn,Events,Conditions,WindDirDegrees,DateUTC
12:01 AM,57.2,57.2,100,29.78,8.0,WSW,6.9,-,N/A,Rain,Light Rain,250,2012-12-10 06:01:00
12:09 AM,59.0,59.0,100,29.78,8.0,West,6.9,-,N/A,Rain,Light Rain,260,2012-12-10 06:09:00
12:46 AM,53.6,53.6,100,29.73,7.0,Variable,6.9,-,N/A,Rain,Light Rain,0,2012-12-10 06:46:00
12:48 AM,53.6,53.6,100,29.73,8.0,Variable,5.8,-,N/A,Rain,Light Rain,0,2012-12-10 06:48:00
12:55 AM,53.2,53.2,100,29.75,10.0,NW,6.9,-,0.09,,Light Drizzle,310,2012-12-10 06:55:00
12:59 AM,53.6,53.6,100,29.76,10.0,Variable,5.8,-,N/A,,Mostly Cloudy,0,2012-12-10 06:59:00
1:07 AM,53.6,53.6,100,29.75,10.0,Variable,6.9,-,N/A,,Overcast,0,2012-12-10 07:07:00
1:31 AM,51.8,51.8,100,29.77,10.0,Variable,4.6,-,N/A,,Overcast,0,2012-12-10 07:31:00
1:55 AM,51.8,51.8,100,29.77,10.0,Variable,6.9,-,0.00,,Overcast,0,2012-12-10 07:55:00
2:19 AM,50.0,50.0,100,29.78,10.0,Variable,5.8,-,N/A,,Overcast,0,2012-12-10 08:19:00
2:30 AM,50.0,50.0,100,29.78,9.0,Variable,5.8,-,N/A,,Overcast,0,2012-12-10 08:30:00
2:33 AM,50.0,50.0,100,29.78,8.0,Variable,3.5,-,N/A,,Overcast,0,2012-12-10 08:33:00
2:35 AM,50.0,50.0,100,29.78,7.0,Variable,4.6,-,N/A,,Light Drizzle,0,2012-12-10 08:35:00
2:42 AM,50.0,50.0,100,29.78,6.0,Variable,6.9,-,N/A,,Light Drizzle,0,2012-12-10 08:42:00
2:55 AM,48.7,48.7,100,29.78,5.0,Variable,5.8,-,0.01,Rain,Light Rain,0,2012-12-10 08:55:00
3:23 AM,48.2,48.2,100,29.79,6.0,Variable,3.5,-,N/A,,Light Drizzle,0,2012-12-10 09:23:00
3:28 AM,48.2,48.2,100,29.79,6.0,Variable,4.6,-,N/A,,Light Drizzle,0,2012-12-10 09:28:00
3:31 AM,48.2,48.2,100,29.79,5.0,Calm,Calm,-,N/A,,Overcast,0,2012-12-10 09:31:00
3:35 AM,48.2,48.2,100,29.79,4.0,Variable,3.5,-,N/A,,Light Drizzle,0,2012-12-10 09:35:00
3:37 AM,48.2,48.2,100,29.79,4.0,Variable,5.8,-,N/A,,Light Drizzle,0,2012-12-10 09:37:00
3:38 AM,48.2,48.2,100,29.79,4.0,Variable,5.8,-,N/A,,Light Drizzle,0,2012-12-10 09:38:00
3:55 AM,46.9,46.9,100,29.79,4.0,Variable,6.9,-,0.01,,Light Drizzle,0,2012-12-10 09:55:00
4:30 AM,46.4,46.4,100,29.79,4.0,North,8.1,-,N/A,,Light Drizzle,360,2012-12-10 10:30:00
4:37 AM,44.6,44.6,100,29.79,7.0,Variable,4.6,-,N/A,,Light Drizzle,0,2012-12-10 10:37:00
4:39 AM,44.6,44.6,100,29.79,8.0,Variable,6.9,-,N/A,,Light Drizzle,0,2012-12-10 10:39:00
4:43 AM,44.6,44.6,100,29.79,10.0,Variable,4.6,-,N/A,,Overcast,0,2012-12-10 10:43:00
4:46 AM,44.6,44.6,100,29.79,10.0,Variable,5.8,-,N/A,,Light Drizzle,0,2012-12-10 10:46:00
4:47 AM,44.6,44.6,100,29.79,10.0,North,5.8,-,N/A,,Light Drizzle,10,2012-12-10 10:47:00
4:55 AM,45.3,45.3,100,29.79,10.0,Variable,3.5,-,0.01,,Light Drizzle,0,2012-12-10 10:55:00
4:57 AM,44.6,44.6,100,29.80,9.0,Variable,6.9,-,N/A,,Light Drizzle,0,2012-12-10 10:57:00
5:05 AM,44.6,44.6,100,29.80,9.0,Variable,5.8,-,N/A,,Light Drizzle,0,2012-12-10 11:05:00
5:08 AM,44.6,44.6,100,29.81,9.0,Variable,4.6,-,N/A,,Light Drizzle,0,2012-12-10 11:08:00
5:12 AM,44.6,44.6,100,29.80,8.0,NNE,6.9,-,N/A,,Light Drizzle,20,2012-12-10 11:12:00
5:15 AM,44.6,44.6,100,29.80,7.0,Variable,4.6,-,N/A,,Light Drizzle,0,2012-12-10 11:15:00
5:23 AM,44.6,44.6,100,29.79,6.0,Variable,4.6,-,N/A,,Drizzle,0,2012-12-10 11:23:00
5:27 AM,44.6,44.6,100,29.79,6.0,Variable,3.5,-,N/A,,Light Drizzle,0,2012-12-10 11:27:00
5:39 AM,44.6,44.6,100,29.80,6.0,Variable,3.5,-,N/A,,Light Drizzle,0,2012-12-10 11:39:00
5:45 AM,44.6,44.6,100,29.80,5.0,Variable,5.8,-,N/A,Rain,Rain,0,2012-12-10 11:45:00
5:52 AM,44.6,44.6,100,29.79,5.0,Calm,Calm,-,N/A,Rain,Light Rain,0,2012-12-10 11:52:00
5:55 AM,44.4,44.4,100,29.79,5.0,Variable,4.6,-,0.02,Rain,Light Rain,0,2012-12-10 11:55:00
6:01 AM,44.6,44.6,100,29.80,5.0,Calm,Calm,-,N/A,,Light Drizzle,0,2012-12-10 12:01:00
6:07 AM,44.6,44.6,100,29.79,5.0,Variable,4.6,-,N/A,,Light Drizzle,0,2012-12-10 12:07:00
6:12 AM,44.6,44.6,100,29.79,6.0,Variable,4.6,-,N/A,,Light Drizzle,0,2012-12-10 12:12:00
6:18 AM,44.6,44.6,100,29.80,9.0,Variable,3.5,-,N/A,,Overcast,0,2012-12-10 12:18:00
6:20 AM,44.6,44.6,100,29.80,10.0,Variable,3.5,-,N/A,,Overcast,0,2012-12-10 12:20:00
6:55 AM,44.1,43.9,99,29.82,10.0,Variable,4.6,-,0.00,,Overcast,0,2012-12-10 12:55:00
7:04 AM,44.6,44.6,100,29.82,10.0,Calm,Calm,-,N/A,,Light Drizzle,0,2012-12-10 13:04:00
7:06 AM,44.6,44.6,100,29.82,10.0,Calm,Calm,-,N/A,,Light Drizzle,0,2012-12-10 13:06:00
7:10 AM,44.6,44.6,100,29.80,10.0,Variable,3.5,-,N/A,,Light Drizzle,0,2012-12-10 13:10:00
7:17 AM,44.6,42.8,93,29.80,10.0,Variable,5.8,-,N/A,,Overcast,0,2012-12-10 13:17:00
7:22 AM,44.6,42.8,93,29.81,10.0,Variable,5.8,-,N/A,,Overcast,0,2012-12-10 13:22:00
7:29 AM,44.6,42.8,93,29.81,10.0,Variable,4.6,-,N/A,,Overcast,0,2012-12-10 13:29:00
7:37 AM,42.8,42.8,100,29.80,10.0,Variable,4.6,-,N/A,,Overcast,0,2012-12-10 13:37:00
7:55 AM,43.5,41.5,93,29.79,10.0,North,3.5,-,0.01,,Overcast,10,2012-12-10 13:55:00
8:06 AM,42.8,41.0,93,29.80,10.0,Variable,3.5,-,N/A,,Light Drizzle,0,2012-12-10 14:06:00
8:36 AM,42.8,41.0,93,29.81,10.0,Variable,5.8,-,N/A,,Overcast,0,2012-12-10 14:36:00
8:55 AM,43.2,40.8,91,29.83,10.0,Calm,Calm,-,0.00,,Overcast,0,2012-12-10 14:55:00
9:27 AM,42.8,41.0,93,29.84,10.0,Variable,4.6,-,N/A,,Light Drizzle,0,2012-12-10 15:27:00
9:34 AM,42.8,41.0,93,29.84,10.0,Variable,3.5,-,N/A,,Light Drizzle,0,2012-12-10 15:34:00
9:39 AM,42.8,41.0,93,29.85,10.0,NW,5.8,-,N/A,,Overcast,310,2012-12-10 15:39:00
9:55 AM,43.3,41.5,93,29.84,10.0,Variable,5.8,-,0.00,,Overcast,0,2012-12-10 15:55:00
9:57 AM,42.8,41.0,93,29.84,10.0,NW,8.1,-,N/A,,Overcast,310,2012-12-10 15:57:00
10:06 AM,42.8,41.0,93,29.85,10.0,NW,13.8,-,N/A,,Overcast,310,2012-12-10 16:06:00
10:10 AM,42.8,41.0,93,29.85,10.0,NW,11.5,18.4,N/A,,Overcast,310,2012-12-10 16:10:00
10:26 AM,41.0,39.2,93,29.86,10.0,NW,9.2,-,N/A,,Light Drizzle,320,2012-12-10 16:26:00
10:42 AM,41.0,39.2,93,29.86,10.0,NW,10.4,17.3,N/A,,Overcast,310,2012-12-10 16:42:00
10:55 AM,39.6,37.9,94,29.87,10.0,NW,15.0,23.0,0.00,,Overcast,310,2012-12-10 16:55:00
11:00 AM,39.2,37.4,93,29.87,10.0,NW,12.7,23.0,N/A,,Light Drizzle,310,2012-12-10 17:00:00
11:11 AM,39.2,37.4,93,29.86,10.0,NW,8.1,18.4,N/A,,Light Drizzle,310,2012-12-10 17:11:00
11:43 AM,37.4,37.4,100,29.84,10.0,NW,9.2,-,N/A,,Overcast,320,2012-12-10 17:43:00
11:55 AM,37.4,36.9,98,29.84,10.0,NW,8.1,-,0.00,,Overcast,320,2012-12-10 17:55:00
12:04 PM,37.4,35.6,93,29.84,10.0,NW,9.2,-,N/A,,Overcast,310,2012-12-10 18:04:00
12:55 PM,36.3,34.7,94,29.86,10.0,WNW,9.2,-,N/A,,Overcast,300,2012-12-10 18:55:00
1:06 PM,35.6,33.8,93,29.87,10.0,NW,10.4,-,N/A,,Light Drizzle,320,2012-12-10 19:06:00
1:26 PM,35.6,32.0,87,29.86,10.0,NW,11.5,17.3,N/A,,Overcast,310,2012-12-10 19:26:00
1:55 PM,34.9,32.2,90,29.86,10.0,NW,9.2,19.6,0.00,,Overcast,310,2012-12-10 19:55:00
2:34 PM,35.6,32.0,87,29.88,10.0,NW,8.1,-,N/A,,Overcast,310,2012-12-10 20:34:00
2:37 PM,35.6,32.0,87,29.87,10.0,Variable,6.9,-,N/A,,Overcast,0,2012-12-10 20:37:00
2:46 PM,35.6,32.0,87,29.87,10.0,NW,6.9,-,N/A,,Overcast,310,2012-12-10 20:46:00
2:55 PM,35.1,30.7,84,29.87,10.0,NW,9.2,-,N/A,,Overcast,310,2012-12-10 20:55:00
3:55 PM,34.5,30.4,85,29.90,10.0,NW,5.8,-,N/A,,Overcast,310,2012-12-10 21:55:00
4:55 PM,33.6,29.8,86,29.94,10.0,NW,9.2,-,N/A,,Overcast,310,2012-12-10 22:55:00
5:55 PM,32.9,28.6,84,29.98,10.0,WNW,9.2,-,N/A,,Overcast,300,2012-12-10 23:55:00
6:55 PM,32.5,27.7,82,30.00,10.0,NW,10.4,-,N/A,,Overcast,310,2012-12-11 00:55:00
7:55 PM,32.2,26.8,80,30.03,10.0,Variable,6.9,-,N/A,,Overcast,0,2012-12-11 01:55:00
8:55 PM,32.4,26.4,79,30.04,10.0,Variable,3.5,-,N/A,,Overcast,0,2012-12-11 02:55:00
9:21 PM,32.0,26.6,80,30.04,10.0,NNW,3.5,-,N/A,,Overcast,330,2012-12-11 03:21:00
9:27 PM,32.0,28.4,87,30.04,10.0,NW,4.6,-,N/A,,Overcast,320,2012-12-11 03:27:00
9:55 PM,32.2,27.5,83,30.05,10.0,Variable,4.6,-,N/A,,Overcast,0,2012-12-11 03:55:00
10:01 PM,32.0,26.6,80,30.05,10.0,Variable,3.5,-,N/A,,Overcast,0,2012-12-11 04:01:00
10:55 PM,31.8,27.0,82,30.06,10.0,Variable,3.5,-,N/A,,Overcast,0,2012-12-11 04:55:00
11:12 PM,32.0,26.6,80,30.07,10.0,Variable,3.5,-,N/A,,Overcast,0,2012-12-11 05:12:00
11:55 PM,32.0,24.4,74,30.07,10.0,Variable,3.5,-,N/A,,Overcast,0,2012-12-11 05:55:00